Flag for Poland Weather past 2 weeks in Warsaw, Poland

Now
50 °F

Clear.


Feels Like: 47 °F
Forecast: 54 / 68 °F
Wind: 7 mph from East

Location: Warsaw Okecie Airport

Current Time: Sep 18, 2014 at 4:01:15 AM

Latest Report: Sep 18, 2014 at 3:30 AM


Visibility: 10 mi

Pressure: 30.18 "Hg

Humidity: 82%

Dew point: 45 °F

Location of WarsawLocation

Historic Weather in Warsaw — Graph

°F

Warsaw temperature yesterday

Maximum temperature yesterday: 68 °F (at 1:00 PM)
Minimum temperature yesterday: 48 °F (at 5:00 AM)
Average temperature yesterday: 58 °F

Past Weeks' High & Low Weather Summary

 TemperatureHumidityPressure
High81 °F (Sep 13, 3:30 PM)100% (Sep 8, 8:30 PM)30.30 "Hg (Sep 8, 8:30 PM)
Low48 °F (Sep 5, 5:30 AM)37% (Sep 14, 1:30 PM)29.95 "Hg (Sep 6, 4:30 PM)
Average62 °F72%30.10 "Hg
* Reported Sep 3 3:00 AM — Sep 18 3:00 AM, Warsaw, Weather by CustomWeather, © 2014

Note: Actual official high and low records may vary slightly from our data, if they occured in-between our weather recording intervals... More about our weather records

Advertising

Warsaw weather history for previous 24 hours

 ConditionsComfort  
Time TempWeatherWind HumidityBarometerVisibility
3:00 AM
Sep 18
50 °FClear.7 mph82%30.18 "Hg10 mi
2:30 AM50 °FClear.7 mph88%30.18 "Hg10 mi
2:00 AM52 °FClear.7 mph82%30.18 "Hg10 mi
1:30 AM52 °FClear.8 mph82%30.18 "Hg10 mi
1:00 AM52 °FClear.8 mph82%30.18 "Hg10 mi
12:30 AM54 °FClear.9 mph77%30.18 "Hg10 mi
12:00 AM55 °FClear.7 mph72%30.18 "Hg10 mi
11:30 PM
Sep 17
57 °FClear.9 mph67%30.18 "Hg10 mi
11:00 PM57 °FClear.9 mph67%30.18 "Hg10 mi
10:30 PM57 °FClear.10 mph67%30.18 "Hg10 mi
10:00 PM57 °FClear.10 mph67%30.18 "Hg10 mi
9:30 PM57 °FClear.10 mph67%30.18 "Hg10 mi
9:00 PM57 °FClear.10 mph67%30.18 "Hg10 mi
8:30 PM57 °FClear.9 mph67%30.18 "Hg10 mi
8:00 PM59 °FClear.9 mph63%30.18 "Hg10 mi
7:30 PM59 °FSunny.8 mph63%30.18 "Hg10 mi
7:00 PM61 °FSunny.8 mph59%30.18 "Hg10 mi
6:30 PM64 °FSunny.12 mph52%30.18 "Hg10 mi
6:00 PM66 °FSunny.12 mph49%30.18 "Hg10 mi
5:30 PM68 °FSunny.13 mph43%30.18 "Hg10 mi
5:00 PM68 °FSunny.15 mph43%30.18 "Hg10 mi
4:30 PM68 °FSunny.14 mph46%30.18 "Hg10 mi
4:00 PM68 °FPassing clouds.13 mph46%30.18 "HgN/A
3:30 PM68 °FPassing clouds.12 mph46%30.18 "HgN/A
3:00 PM68 °FPassing clouds.15 mph46%30.18 "HgN/A
2:30 PM68 °FPassing clouds.12 mph46%30.18 "HgN/A
2:00 PM68 °FSunny.13 mph46%30.21 "Hg10 mi
1:30 PM68 °FPassing clouds.12 mph49%30.21 "HgN/A
1:00 PM68 °FPassing clouds.13 mph49%30.21 "HgN/A
12:30 PM66 °FPassing clouds.13 mph52%30.21 "HgN/A
12:00 PM64 °FPassing clouds.16 mph56%30.24 "HgN/A
11:30 AM64 °FPassing clouds.15 mph60%30.24 "HgN/A
11:00 AM63 °FPassing clouds.15 mph59%30.24 "HgN/A
10:30 AM61 °FSunny.15 mph68%30.24 "Hg10 mi
10:00 AM61 °FPassing clouds.13 mph68%30.24 "HgN/A
9:30 AM59 °FPassing clouds.13 mph72%30.24 "HgN/A
9:00 AM57 °FPassing clouds.9 mph77%30.24 "HgN/A
8:30 AM54 °FPassing clouds.7 mph82%30.24 "HgN/A
8:00 AM52 °FSunny.8 mph88%30.21 "Hg10 mi
7:30 AM50 °FPassing clouds.8 mph94%30.21 "HgN/A
7:00 AM48 °FClear.8 mph94%30.21 "Hg10 mi
6:30 AM48 °FClear.9 mph94%30.21 "Hg10 mi
6:00 AM48 °FClear.8 mph94%30.21 "Hg10 mi
5:30 AM48 °FClear.8 mph94%30.21 "Hg10 mi
5:00 AM48 °FClear.8 mph94%30.21 "Hg10 mi
4:30 AM50 °FClear.9 mph94%30.21 "Hg10 mi
4:00 AM50 °FClear.9 mph94%30.21 "Hg10 mi
Weather by CustomWeather, © 2014

See weather overviewHow to use our weather pages